Mackinac Island, MI

12:46 PM EST on January 19, 2018 (GMT -0500)
Mackinac Island

Weather History for KMCD - October, 2011

Change the Weather History Date:

Saturday, October 15, 2011

  Actual Average Record
Temperature  
Mean Temperature 44 °F -  
Max Temperature 46 °F 51 °F 62 °F (1988)
Min Temperature 42 °F 40 °F 29 °F (1978)
Degree Days  
Heating Degree Days 21    
Moisture  
Dew Point 42 °F    
Average Humidity 91    
Maximum Humidity 100    
Minimum Humidity 76    
Precipitation  
Precipitation 0.16 in - - ()
Sea Level Pressure  
Sea Level Pressure 29.26 in    
Wind  
Wind Speed 16 mph (WNW)    
Max Wind Speed 25 mph    
Max Gust Speed 41 mph    
Visibility 8 miles    
Events Rain    
Averages and records for this station are not official NWS values.
T = Trace of Precipitation, MM = Missing Value Source: NWS Daily Summary

Daily Weather History Graph

Daily Weather History Graph

Search for Another Location

Airport or City:

Trip Planner

Search our weather history database for the weather conditions in past years. The results will help you decide how hot, cold, wet, or windy it might be!

Date:

Astronomy

Oct. 15, 2011 Rise Set
Actual Time 7:54 AM EDT 6:53 PM EDT
Civil Twilight 7:24 AM EDT 7:23 PM EDT
Nautical Twilight 6:50 AM EDT 7:57 PM EDT
Astronomical Twilight 6:15 AM EDT 8:32 PM EDT
Moon 8:35 PM EDT (10/15) 11:31 AM EDT (10/15)
Length of Visible Light 11h 58m
Length of Day
10h 58m
Waning Gibbous, 89% of the Moon is Illuminated
Oct 15
Waning Gibbous
Oct 19
Last Quarter
Oct 26
New
Nov 2
First Quarter
Nov 10
Full

Hourly Weather History & Observations

Time (EDT) Temp. Windchill Dew Point Humidity Pressure Visibility Wind Dir Wind Speed Gust Speed Precip Events Conditions
12:14 AM 46.4 °F 41.1 °F 41.0 °F 81% 29.26 in 10.0 mi West 11.5 mph 27.6 mph N/A   Overcast
12:34 AM 44.6 °F 38.4 °F 41.0 °F 87% 29.25 in 10.0 mi West 12.7 mph 23.0 mph 0.01 in Rain Light Rain
12:55 AM 44.6 °F 37.4 °F 42.8 °F 93% 29.25 in 7.0 mi West 16.1 mph 26.5 mph 0.02 in   Overcast
12:59 AM 44.6 °F 37.8 °F 42.8 °F 93% 29.25 in 7.0 mi West 15.0 mph 25.3 mph 0.02 in Rain Light Rain
1:14 AM 44.6 °F 38.8 °F 42.8 °F 93% 29.24 in 7.0 mi West 11.5 mph 25.3 mph N/A Rain Light Rain
1:34 AM 44.6 °F 38.8 °F 42.8 °F 93% 29.24 in 7.0 mi West 11.5 mph 25.3 mph N/A Rain Light Rain
1:54 AM 44.6 °F 38.4 °F 42.8 °F 93% 29.23 in 7.0 mi West 12.7 mph 24.2 mph N/A Rain Light Rain
2:14 AM 44.6 °F 38.8 °F 42.8 °F 93% 29.23 in 7.0 mi West 11.5 mph 21.9 mph N/A Rain Light Rain
2:35 AM 44.6 °F 37.4 °F 42.8 °F 93% 29.23 in 5.0 mi WNW 16.1 mph 26.5 mph N/A Rain Light Rain
2:54 AM 44.6 °F 36.6 °F 42.8 °F 93% 29.22 in 3.0 mi WNW 19.6 mph 26.5 mph N/A Rain Light Rain
3:14 AM 44.6 °F 38.1 °F 42.8 °F 93% 29.22 in 5.0 mi West 13.8 mph 26.5 mph N/A Rain Light Rain
3:34 AM 44.6 °F 37.8 °F 42.8 °F 93% 29.22 in 3.0 mi West 15.0 mph 28.8 mph 0.01 in Rain Light Rain
3:54 AM 44.6 °F 38.1 °F 42.8 °F 93% 29.21 in 3.0 mi WNW 13.8 mph 29.9 mph 0.02 in Rain Light Rain
3:59 AM 44.6 °F 37.4 °F 42.8 °F 93% 29.20 in 3.0 mi West 16.1 mph 29.9 mph 0.02 in Rain Light Rain
4:15 AM 44.6 °F 36.9 °F 42.8 °F 93% 29.20 in 4.0 mi West 18.4 mph 34.5 mph N/A Rain Light Rain
4:34 AM 44.6 °F 36.4 °F 42.8 °F 93% 29.20 in 7.0 mi West 20.7 mph 28.8 mph N/A   Overcast
4:55 AM 44.6 °F 36.6 °F 42.8 °F 93% 29.20 in 3.0 mi WNW 19.6 mph 32.2 mph N/A Rain Light Rain
5:14 AM 44.6 °F 36.9 °F 42.8 °F 93% 29.20 in 4.0 mi West 18.4 mph 33.4 mph N/A   Unknown
5:34 AM 44.6 °F 37.4 °F 42.8 °F 93% 29.20 in 3.0 mi West 16.1 mph 33.4 mph N/A Rain Light Rain
5:54 AM 42.8 °F 34.3 °F 42.8 °F 100% 29.21 in 3.0 mi WNW 19.6 mph 28.8 mph N/A Rain Light Rain
6:14 AM 42.8 °F 35.4 °F 42.8 °F 100% 29.21 in 4.0 mi WNW 15.0 mph 32.2 mph N/A Rain Light Rain
6:35 AM 42.8 °F 34.5 °F 42.8 °F 100% 29.21 in 2.5 mi WNW 18.4 mph 28.8 mph 0.02 in   Overcast
6:54 AM 42.8 °F 34.8 °F 41.0 °F 93% 29.21 in 10.0 mi WNW 17.3 mph 26.5 mph 0.02 in Rain Light Rain
6:59 AM 42.8 °F 35.4 °F 41.0 °F 93% 29.21 in 10.0 mi WNW 15.0 mph 26.5 mph 0.02 in Rain Light Rain
7:14 AM 42.8 °F 34.8 °F 41.0 °F 93% 29.21 in 7.0 mi NW 17.3 mph 25.3 mph N/A Rain Light Rain
7:34 AM 42.8 °F 35.1 °F 41.0 °F 93% 29.22 in 10.0 mi NW 16.1 mph 33.4 mph N/A Rain Light Rain
7:54 AM 42.8 °F 34.8 °F 41.0 °F 93% 29.23 in 10.0 mi NW 17.3 mph 28.8 mph 0.01 in Rain Light Rain
7:59 AM 42.8 °F 34.3 °F 41.0 °F 93% 29.23 in 10.0 mi NW 19.6 mph 28.8 mph 0.02 in Rain Light Rain
8:14 AM 42.8 °F 34.5 °F 41.0 °F 93% 29.23 in 10.0 mi WNW 18.4 mph 29.9 mph N/A Rain Light Rain
8:34 AM 42.8 °F 34.8 °F 41.0 °F 93% 29.24 in 10.0 mi WNW 17.3 mph 35.7 mph N/A Rain Light Rain
9:14 AM 42.8 °F 34.5 °F 41.0 °F 93% 29.26 in 10.0 mi WNW 18.4 mph 25.3 mph N/A Rain Light Rain
9:34 AM 42.8 °F 33.5 °F 41.0 °F 93% 29.27 in 10.0 mi NW 23.0 mph 39.1 mph 0.02 in Rain Light Rain
9:54 AM 42.8 °F 34.0 °F 41.0 °F 93% 29.28 in 10.0 mi WNW 20.7 mph 31.1 mph 0.02 in   Unknown
10:15 AM 42.8 °F 34.3 °F 41.0 °F 93% 29.29 in 10.0 mi NW 19.6 mph 27.6 mph N/A   Overcast
10:34 AM 42.8 °F 34.8 °F 41.0 °F 93% 29.30 in 10.0 mi NW 17.3 mph 28.8 mph N/A Rain Light Rain
10:54 AM 42.8 °F 34.3 °F 41.0 °F 93% 29.31 in 10.0 mi NW 19.6 mph 32.2 mph 0.02 in Rain Light Rain
10:59 AM 42.8 °F 34.8 °F 41.0 °F 93% 29.31 in 10.0 mi WNW 17.3 mph 27.6 mph 0.02 in Rain Light Rain
11:14 AM 42.8 °F 35.1 °F 41.0 °F 93% 29.32 in 10.0 mi NW 16.1 mph 29.9 mph N/A   Overcast
11:34 AM 44.6 °F 36.9 °F 41.0 °F 87% 29.33 in 10.0 mi NW 18.4 mph 25.3 mph N/A   Overcast
11:54 AM 44.6 °F 37.2 °F 41.0 °F 87% 29.33 in 10.0 mi WNW 17.3 mph 27.6 mph N/A   Overcast
12:14 PM 44.6 °F 37.2 °F 41.0 °F 87% 29.35 in 10.0 mi WNW 17.3 mph 27.6 mph 0.02 in   Overcast
12:34 PM 44.6 °F 36.9 °F 41.0 °F 87% 29.35 in 10.0 mi WNW 18.4 mph 36.8 mph 0.02 in   Overcast
12:55 PM 44.6 °F 36.6 °F 41.0 °F 87% 29.37 in 10.0 mi WNW 19.6 mph 35.7 mph 0.02 in   Overcast
12:59 PM 44.6 °F 36.9 °F 41.0 °F 87% 29.37 in 10.0 mi WNW 18.4 mph 35.7 mph 0.02 in   Overcast
1:14 PM 44.6 °F 35.7 °F 41.0 °F 87% 29.37 in 7.0 mi WNW 24.2 mph 34.5 mph N/A   Overcast
1:34 PM 44.6 °F 35.9 °F 39.2 °F 81% 29.38 in 10.0 mi WNW 23.0 mph 31.1 mph 0.01 in   Overcast
1:54 PM 44.6 °F 35.5 °F 37.4 °F 76% 29.38 in 10.0 mi WNW 25.3 mph 41.4 mph 0.02 in   Overcast
1:59 PM 44.6 °F 35.9 °F 37.4 °F 76% 29.38 in 10.0 mi NW 23.0 mph 41.4 mph 0.02 in   Overcast
2:14 PM 46.4 °F 38.3 °F 37.4 °F 71% 29.39 in 10.0 mi WNW 23.0 mph 43.7 mph N/A   Overcast
2:34 PM 46.4 °F 38.3 °F 35.6 °F 66% 29.40 in 10.0 mi WNW 23.0 mph 34.5 mph N/A   Overcast
2:54 PM 46.4 °F 39.0 °F 35.6 °F 66% 29.41 in 10.0 mi WNW 19.6 mph 29.9 mph N/A   Overcast
3:15 PM 46.4 °F 37.7 °F 35.6 °F 66% 29.42 in 10.0 mi WNW 26.5 mph 36.8 mph 0.01 in   Overcast
3:34 PM 46.4 °F 38.5 °F 35.6 °F 66% 29.43 in 10.0 mi WNW 21.9 mph 36.8 mph 0.02 in   Overcast
3:59 PM 46.4 °F 38.7 °F 35.6 °F 66% 29.44 in 10.0 mi WNW 20.7 mph 36.8 mph 0.02 in   Overcast
4:14 PM 46.4 °F 38.7 °F 37.4 °F 71% 29.45 in 10.0 mi WNW 20.7 mph 29.9 mph N/A   Overcast
4:35 PM 46.4 °F 38.3 °F 37.4 °F 71% 29.47 in 10.0 mi NW 23.0 mph 33.4 mph N/A   Overcast
4:54 PM 46.4 °F 39.2 °F 37.4 °F 71% 29.47 in 10.0 mi WNW 18.4 mph 32.2 mph N/A   Mostly Cloudy
5:14 PM 46.4 °F 39.2 °F 37.4 °F 71% 29.48 in 10.0 mi WNW 18.4 mph 31.1 mph N/A   Mostly Cloudy
5:35 PM 44.6 °F 36.9 °F 37.4 °F 76% 29.50 in 7.0 mi WNW 18.4 mph 34.5 mph 0.02 in Rain Light Rain
5:54 PM 46.4 °F 39.0 °F 37.4 °F 71% 29.50 in 10.0 mi WNW 19.6 mph 34.5 mph 0.02 in   Overcast
5:59 PM 46.4 °F 38.1 °F 35.6 °F 66% 29.51 in 10.0 mi WNW 24.2 mph 36.8 mph 0.02 in   Overcast
6:14 PM 44.6 °F 36.4 °F 37.4 °F 76% 29.52 in 7.0 mi WNW 20.7 mph 35.7 mph N/A Rain Light Rain
6:34 PM 44.6 °F 36.6 °F 37.4 °F 76% 29.52 in 10.0 mi WNW 19.6 mph 32.2 mph N/A Rain Light Rain
6:55 PM 46.4 °F 38.5 °F 35.6 °F 66% 29.54 in 10.0 mi WNW 21.9 mph 33.4 mph N/A Rain Light Rain
7:14 PM 46.4 °F 39.2 °F 35.6 °F 66% 29.54 in 10.0 mi WNW 18.4 mph 29.9 mph N/A   Overcast
7:34 PM 46.4 °F 38.7 °F 33.8 °F 62% 29.55 in 10.0 mi WNW 20.7 mph 34.5 mph N/A   Overcast
7:55 PM 46.4 °F 38.7 °F 35.6 °F 66% 29.55 in 10.0 mi WNW 20.7 mph 33.4 mph N/A   Overcast
7:59 PM 46.4 °F 39.2 °F 35.6 °F 66% 29.55 in 10.0 mi West 18.4 mph 35.7 mph 0.01 in   Overcast
8:14 PM 46.4 °F 40.1 °F 33.8 °F 62% 29.55 in 10.0 mi WNW 15.0 mph 32.2 mph N/A   Overcast
8:35 PM 46.4 °F 37.9 °F 33.8 °F 62% 29.56 in 10.0 mi WNW 25.3 mph 38.0 mph 0.01 in   Overcast
8:54 PM 46.4 °F 39.2 °F 35.6 °F 66% 29.56 in 10.0 mi WNW 18.4 mph 28.8 mph 0.01 in   Overcast
8:59 PM 46.4 °F 39.8 °F 33.8 °F 62% 29.56 in 10.0 mi WNW 16.1 mph 28.8 mph 0.01 in   Overcast
9:14 PM 46.4 °F 39.8 °F 33.8 °F 62% 29.57 in 10.0 mi WNW 16.1 mph 31.1 mph N/A   Overcast
9:34 PM 46.4 °F 40.1 °F 33.8 °F 62% 29.57 in 10.0 mi West 15.0 mph 25.3 mph N/A   Overcast
9:54 PM 46.4 °F 40.1 °F 33.8 °F 62% 29.57 in 10.0 mi West 15.0 mph 31.1 mph N/A   Overcast
10:15 PM 46.4 °F 39.2 °F 35.6 °F 66% 29.57 in 10.0 mi West 18.4 mph 29.9 mph N/A   Overcast
10:34 PM 46.4 °F 40.7 °F 35.6 °F 66% 29.57 in 10.0 mi West 12.7 mph 28.8 mph N/A   Overcast
10:55 PM 46.4 °F 39.8 °F 35.6 °F 66% 29.57 in 10.0 mi West 16.1 mph 28.8 mph N/A   Overcast
11:14 PM 46.4 °F 39.5 °F 35.6 °F 66% 29.57 in 10.0 mi West 17.3 mph 36.8 mph N/A   Overcast
11:34 PM 46.4 °F 39.2 °F 35.6 °F 66% 29.58 in 10.0 mi West 18.4 mph 29.9 mph 0.01 in   Overcast
11:59 PM 46.4 °F 40.1 °F 35.6 °F 66% 29.59 in 10.0 mi WNW 15.0 mph 28.8 mph 0.01 in   Overcast